K7JKM Weather Reports


Display with metric or nautical units.
time (UTC)temp
F
wind
direction
speed
MPH
gust
MPH
rain 1hr
in
rain 24hr
in
rain mn
in
humidity
%
barometer
mb
20220525151503 58 168 0.0 1.0 0.00 0.00 0.00 60 1017.5
20220525150006 57 201 0.0 3.0 0.00 0.00 0.00 61 1017.3
20220525144508 56 213 0.0 1.0 0.00 0.00 0.00 62 1017.2
20220525143011 55 130 0.0 0.0 0.00 0.00 0.00 62 1017.1
20220525141514 55 131 0.0 0.0 0.00 0.00 0.00 63 1017.3
20220525140019 54 131 0.0 0.0 0.00 0.00 0.00 64 1017.2
20220525134521 54 130 0.0 1.0 0.00 0.00 0.00 64 1017.1
20220525133028 54 135 0.0 1.0 0.00 0.00 0.00 64 1017.0
20220525131535 54 120 0.0 0.0 0.00 0.00 0.00 65 1016.9
20220525130012 54 120 0.0 1.0 0.00 0.00 0.00 66 1016.7
20220525124516 55 155 0.0 0.0 0.00 0.00 0.00 67 1017.0
20220525123017 55 155 0.0 0.0 0.00 0.00 0.00 67 1016.7
20220525121526 55 153 0.0 1.0 0.00 0.00 0.00 67 1016.6
20220525120024 55 224 0.0 1.0 0.00 0.00 0.00 65 1016.6
20220525114533 55 327 0.0 2.0 0.00 0.00 0.00 64 1016.4
20220525113048 54 158 0.0 1.0 0.00 0.00 0.00 62 1016.4
20220525111536 54 178 0.0 2.0 0.00 0.00 0.00 61 1016.5
20220525110046 54 310 0.0 2.0 0.00 0.00 0.00 62 1016.6
20220525104544 54 301 0.0 4.0 0.00 0.00 0.00 63 1016.6
20220525103103 54 314 0.0 1.0 0.00 0.00 0.00 64 1016.4
20220525101608 53 209 0.0 1.0 0.00 0.00 0.00 66 1016.2
20220525100054 54 208 0.0 0.0 0.00 0.00 0.00 64 1016.2
20220525094557 54 207 0.0 1.0 0.00 0.00 0.00 63 1016.0
20220525093102 54 217 0.0 1.0 0.00 0.00 0.00 60 1016.2
20220525091501 53 217 0.0 0.0 0.00 0.00 0.00 60 1016.3
20220525090003 53 217 0.0 0.0 0.00 0.00 0.00 60 1016.3
20220525084506 53 281 0.0 1.0 0.00 0.00 0.00 59 1016.3
20220525083017 54 281 0.0 0.0 0.00 0.00 0.00 56 1016.4
20220525081513 55 282 0.0 0.0 0.00 0.00 0.00 53 1016.6
20220525080019 56 283 0.0 2.0 0.00 0.00 0.00 51 1016.7
20220525074536 56 314 0.0 3.0 0.00 0.00 0.00 49 1016.7
20220525073037 57 298 1.0 3.0 0.00 0.00 0.00 48 1016.6
20220525071544 58 197 0.0 0.0 0.00 0.00 0.00 49 1016.5
20220525070006 58 197 0.0 1.0 0.00 0.00 0.00 49 1016.5
20220525064512 58 227 0.0 2.0 0.00 0.00 0.00 50 1016.6
20220525063012 58 324 0.0 5.0 0.00 0.00 0.00 52 1016.7
20220525061518 59 314 0.0 4.0 0.00 0.00 0.00 54 1016.7
20220525060031 59 333 0.0 3.0 0.00 0.00 0.00 53 1016.7
20220525054524 60 245 0.0 1.0 0.00 0.00 0.00 53 1016.6
20220525053025 60 334 0.0 2.0 0.00 0.00 0.00 52 1016.5
20220525051524 60 304 0.0 1.0 0.00 0.00 0.00 52 1016.4
20220525050029 60 308 0.0 1.0 0.00 0.00 0.00 51 1016.5
20220525044525 61 246 0.0 3.0 0.00 0.00 0.00 50 1016.4
20220525043032 62 314 0.0 3.0 0.00 0.00 0.00 49 1016.2
20220525041532 62 134 0.0 0.0 0.00 0.00 0.00 58 1016.3
20220525040051 62 134 0.0 0.0 0.00 0.00 0.00 59 1016.3
20220525034551 63 134 0.0 0.0 0.00 0.00 0.00 58 1016.3
20220525033044 63 134 0.0 0.0 0.00 0.00 0.00 57 1016.3
20220525031548 64 134 0.0 0.0 0.00 0.00 0.00 56 1016.3
20220525030056 64 134 0.0 0.0 0.00 0.00 0.00 54 1016.4
20220525024558 65 127 0.0 0.0 0.00 0.00 0.00 54 1016.4
20220525023056 65 81 0.0 0.0 0.00 0.00 0.00 53 1016.4
20220525021600 66 85 0.0 0.0 0.00 0.00 0.00 52 1016.3
20220525020104 66 86 0.0 0.0 0.00 0.00 0.00 52 1016.2
20220525014504 66 38 0.0 1.0 0.00 0.00 0.00 51 1016.3
20220525013008 66 20 0.0 2.0 0.00 0.00 0.00 50 1016.2
20220525011512 66 314 1.0 4.0 0.00 0.00 0.00 50 1016.4
20220525010121 67 301 1.0 5.0 0.00 0.00 0.00 48 1016.2
20220525004603 67 68 1.0 6.0 0.00 0.00 0.00 49 1016.5
20220525003006 68 308 0.0 4.0 0.00 0.00 0.00 48 1016.5
20220525001506 67 172 0.0 5.0 0.00 0.00 0.00 49 1016.6
20220525000015 67 359 2.0 5.0 0.00 0.00 0.00 47 1016.6
20220524234518 67 322 1.0 6.0 0.00 0.00 0.00 48 1016.7
20220524233017 68 248 0.0 5.0 0.00 0.00 0.00 42 1016.7
20220524231522 69 349 0.0 4.0 0.00 0.00 0.00 38 1016.6
20220524230044 69 18 0.0 4.0 0.00 0.00 0.00 37 1016.8
20220524224536 70 341 2.0 4.0 0.00 0.00 0.00 34 1016.8
20220524223046 70 334 2.0 4.0 0.00 0.00 0.00 32 1016.8
20220524221542 71 321 1.0 4.0 0.00 0.00 0.00 30 1017.1
20220524220042 71 223 0.0 3.0 0.00 0.00 0.00 29 1017.4
20220524214605 71 221 0.0 5.0 0.00 0.00 0.00 27 1017.6
20220524213104 72 316 1.0 4.0 0.00 0.00 0.00 28 1017.9
20220524211559 72 236 1.0 4.0 0.00 0.00 0.00 32 1018.0
20220524210110 71 272 0.0 4.0 0.00 0.00 0.00 34 1018.1
20220524204604 69 213 0.0 3.0 0.00 0.00 0.00 39 1018.3
20220524203002 68 240 1.0 5.0 0.00 0.00 0.00 41 1018.6
20220524201502 68 288 0.0 2.0 0.00 0.00 0.00 47 1018.9
20220524200004 67 233 1.0 3.0 0.00 0.00 0.00 47 1019.1
20220524194508 66 143 0.0 5.0 0.00 0.00 0.00 45 1019.1
20220524193023 64 315 1.0 4.0 0.00 0.00 0.00 46 1019.3
20220524191531 64 332 0.0 2.0 0.00 0.00 0.00 44 1019.6
20220524190122 65 303 0.0 3.0 0.00 0.00 0.00 45 1019.6
20220524184603 63 238 0.0 4.0 0.00 0.00 0.00 47 1019.5
20220524183002 62 300 0.0 2.0 0.00 0.00 0.00 50 1019.8
20220524181506 61 323 0.0 4.0 0.00 0.00 0.00 50 1019.9
20220524180010 61 326 0.0 4.0 0.00 0.00 0.00 49 1019.9
20220524174514 62 144 0.0 3.0 0.00 0.00 0.00 48 1020.0
20220524173018 60 40 0.0 2.0 0.00 0.00 0.00 50 1019.9
20220524171521 60 89 0.0 1.0 0.00 0.00 0.00 51 1019.8
20220524170026 60 161 0.0 2.0 0.00 0.00 0.00 49 1020.1
20220524164525 59 150 0.0 2.0 0.00 0.00 0.00 51 1020.0
20220524163031 57 249 0.0 0.0 0.00 0.00 0.00 52 1020.2
20220524161538 56 160 0.0 2.0 0.00 0.00 0.00 55 1020.6
20220524160045 54 148 0.0 1.0 0.00 0.00 0.00 57 1020.5
20220524154552 53 141 0.0 2.0 0.00 0.00 0.00 59 1020.3
20220524153048 52 316 0.0 1.0 0.00 0.00 0.00 60 1020.4